GFSSW_850_thetae_000.txt.gz
Theta_e
309 309 310 310 311 310 310 310 311 312 313 314 315 317 317 319 322 323 324 323 322 324 324 325 325 323 325 327 329 329 321 319 320 318 319 318 317 320 320 320 320 319 319 317 316
309 309 310 310 310 310 310 310 310 311 312 313 314 316 317 319 321 322 322 323 322 323 323 322 322 321 324 326 329 324 318 320 319 317 316 318 319 320 319 320 319 318 316 316 316
308 308 309 309 310 310 310 310 310 310 311 312 313 315 317 319 321 322 322 323 323 323 325 325 322 323 326 326 327 326 321 319 320 319 319 319 319 321 320 319 319 319 316 316 316
308 308 309 309 310 310 310 310 310 310 310 312 313 314 316 318 321 324 325 323 325 325 325 324 321 323 322 322 325 323 321 320 320 320 319 318 319 319 321 320 319 318 317 316 315
308 308 308 309 309 309 310 311 311 310 311 311 312 313 315 318 321 326 325 322 325 324 323 321 323 324 323 324 323 320 320 321 321 320 320 320 319 319 319 319 318 319 316 316 315
308 308 308 308 309 309 310 311 311 311 311 311 311 312 314 320 320 322 323 325 325 325 324 322 324 325 325 324 321 322 321 320 320 319 319 317 318 319 319 319 319 317 316 316 315
308 308 308 308 308 309 310 311 312 312 311 311 311 312 313 316 320 322 322 325 325 323 322 324 324 326 326 322 324 322 320 318 318 319 318 318 318 317 320 319 319 316 316 316 315
308 308 308 309 309 309 309 311 312 312 312 312 312 311 313 316 318 324 325 324 322 322 324 323 324 323 323 323 322 321 317 318 317 317 319 317 316 318 319 319 319 316 316 316 315
307 308 308 308 308 309 309 310 312 313 312 314 311 312 318 317 320 323 323 323 323 325 325 325 324 323 322 320 319 319 318 318 318 318 318 316 316 319 319 319 318 316 316 315 315
305 307 308 308 308 309 310 310 313 313 314 315 317 314 314 318 319 324 323 324 324 324 324 324 323 319 316 317 320 321 318 319 319 317 318 315 314 317 319 319 320 316 316 315 315
301 303 306 308 308 308 309 311 317 320 318 315 314 315 319 319 321 322 325 325 324 324 323 323 321 320 319 317 319 321 321 320 320 318 318 317 315 317 318 320 318 316 315 315 315
300 300 301 305 308 308 308 309 318 316 315 318 318 318 317 319 321 323 325 325 324 322 322 322 321 321 320 320 320 321 321 321 320 318 317 316 317 317 318 320 320 316 315 315 315
303 301 301 302 306 309 308 310 315 317 317 318 319 319 317 318 319 320 323 325 323 322 321 321 322 322 322 320 320 319 320 321 320 319 318 318 318 320 319 320 321 317 317 316 316
303 302 300 301 303 308 309 314 316 317 316 319 320 320 320 321 319 320 323 324 322 322 321 321 322 322 322 321 319 318 319 321 322 320 319 319 319 319 320 320 320 317 316 316 316
305 303 301 299 306 309 312 317 317 319 314 318 319 319 320 321 321 320 321 324 322 322 321 323 322 321 322 322 319 319 319 319 321 318 318 320 319 320 320 322 323 318 317 316 316
306 304 302 299 301 308 314 316 317 317 319 318 318 319 319 321 322 321 322 324 324 322 321 322 323 322 322 320 318 319 321 321 319 318 320 319 320 319 320 321 322 319 317 316 317
304 305 303 300 302 305 310 314 316 318 316 316 316 318 319 319 320 320 320 322 322 322 322 322 322 322 319 318 319 320 319 320 321 319 321 321 321 321 320 320 323 319 317 317 317
304 304 304 303 301 310 311 313 317 315 316 317 317 317 318 319 319 320 320 321 320 320 321 322 323 322 321 318 318 317 318 321 323 322 323 327 326 322 326 322 323 321 318 317 318
304 304 304 306 302 300 308 316 314 315 315 316 316 318 317 318 319 319 319 319 319 319 322 321 322 322 321 320 318 319 320 318 320 322 323 328 330 328 327 324 324 320 317 317 318
305 304 304 305 304 301 306 316 315 315 316 315 314 316 318 318 318 318 319 319 319 320 320 321 322 321 323 327 325 318 319 322 318 323 325 324 334 331 329 326 322 318 317 317 318
305 303 306 304 305 305 307 313 314 315 315 316 314 315 316 317 317 317 318 319 319 319 321 321 320 323 328 328 324 326 328 328 324 323 323 323 332 330 330 326 322 319 318 318 318
305 304 305 306 304 304 303 310 313 314 314 315 315 316 316 317 318 319 320 319 320 320 321 319 319 322 331 329 328 328 331 330 331 330 326 329 329 329 328 325 323 320 319 318 318
303 305 306 306 304 302 302 306 310 314 314 313 313 314 316 316 317 319 320 321 322 320 320 320 320 330 329 330 328 326 330 331 330 329 330 331 328 328 328 326 324 321 319 318 318
304 306 305 306 306 302 302 303 307 309 311 313 313 314 313 314 315 317 319 322 323 321 321 323 320 324 326 327 329 330 328 329 329 330 329 329 329 328 329 327 326 322 320 318 318
304 306 306 307 307 306 304 305 304 306 310 311 312 313 313 314 316 315 316 318 320 324 324 321 322 324 324 326 329 328 328 328 329 328 329 329 331 327 328 329 328 327 322 319 318
301 306 305 307 306 307 307 307 308 308 305 308 310 311 312 313 314 315 318 320 321 324 325 324 325 329 334 329 329 330 328 328 328 327 327 328 328 326 328 328 327 328 323 320 318
301 304 305 305 307 308 307 307 309 308 308 309 309 311 312 313 315 315 315 316 322 325 330 324 325 324 332 331 330 332 330 328 328 326 326 327 326 326 327 327 326 326 325 322 320

GFSSW_850_thetae_003.txt.gz
Theta_e
309 309 309 309 310 310 310 310 310 311 311 312 313 314 316 316 318 320 323 324 324 323 325 325 326 326 326 324 326 327 323 322 319 316 317 317 315 318 319 319 319 318 318 317 316
308 309 309 309 309 310 310 310 311 310 310 311 312 313 315 316 317 319 321 323 324 322 324 324 324 324 323 324 326 322 318 319 316 316 315 316 316 318 319 318 317 316 316 315 315
308 308 309 309 309 309 310 311 311 311 310 311 311 312 314 316 317 318 319 322 323 322 323 323 322 322 323 323 324 324 324 318 319 318 318 316 316 319 317 318 318 315 315 315 315
308 308 308 309 309 309 309 310 311 311 310 310 311 311 312 315 319 321 323 321 323 323 323 323 323 322 320 321 322 323 323 322 320 319 318 316 318 319 319 319 319 318 316 315 315
308 308 308 308 308 308 309 310 311 311 311 311 310 311 311 314 317 324 324 322 322 323 324 325 324 322 322 322 323 319 319 319 319 319 319 318 318 318 319 320 318 317 315 315 315
307 308 308 308 308 308 309 310 310 311 311 311 311 310 310 318 316 317 320 323 323 323 324 324 324 322 324 323 320 321 319 319 319 319 318 317 317 319 318 318 318 317 315 315 315
308 308 307 308 308 308 309 309 310 311 311 312 311 311 310 312 316 319 317 321 324 323 325 324 323 324 325 322 323 320 319 318 317 316 317 317 317 315 319 318 317 316 315 315 315
306 308 308 308 308 308 309 309 309 310 312 312 312 313 310 313 314 315 323 321 322 324 324 325 322 324 322 322 320 320 317 318 317 316 317 317 316 316 318 318 317 315 315 315 315
301 304 306 308 309 309 309 309 310 311 312 312 314 312 312 315 315 316 318 321 322 324 324 322 324 321 321 318 318 318 320 318 318 316 317 316 316 316 319 318 317 315 315 315 315
300 301 303 306 308 309 310 309 310 311 312 314 314 310 312 314 316 317 319 323 324 323 321 323 322 319 315 317 320 319 319 318 318 317 316 315 315 316 318 318 317 315 315 315 315
307 303 301 301 304 307 310 310 312 319 316 314 313 313 317 319 318 319 323 323 322 324 321 322 319 319 319 318 318 319 320 320 320 318 318 316 316 315 318 317 316 315 315 315 315
307 305 303 301 302 304 307 309 312 312 312 315 316 316 315 315 316 320 323 323 322 321 321 320 319 320 319 319 319 318 319 319 318 318 316 317 317 315 316 317 317 315 315 315 315
307 305 303 304 301 302 306 309 310 314 314 317 318 318 316 316 317 318 322 323 322 321 320 321 322 321 320 320 320 319 319 319 319 319 317 316 316 318 317 318 319 315 315 315 315
304 307 305 304 302 301 305 309 311 315 315 316 318 318 318 318 318 318 319 323 321 323 319 320 320 321 321 321 319 319 318 319 320 318 317 317 317 318 318 317 317 315 315 315 315
306 304 307 303 303 305 308 309 314 316 313 315 317 318 318 319 318 318 319 321 321 320 320 322 320 320 321 321 320 320 320 318 319 318 317 319 317 318 318 319 320 314 315 315 316
306 304 304 306 302 303 308 312 315 315 316 315 317 318 317 318 319 319 320 320 323 320 320 321 322 320 321 321 320 320 318 318 316 316 317 317 318 317 320 320 321 316 315 315 316
306 305 303 305 303 302 302 310 315 316 314 316 314 317 318 317 318 319 319 320 321 321 321 321 320 320 320 319 317 317 315 316 318 318 320 319 320 319 319 319 321 319 316 316 316
306 305 304 303 305 303 305 311 315 314 314 315 314 316 318 317 317 319 319 319 318 320 320 321 323 320 320 319 319 315 315 316 319 319 320 322 324 323 320 324 321 321 319 317 316
306 305 304 305 304 303 304 314 316 313 314 315 316 316 316 317 318 318 319 319 318 318 322 321 322 321 319 318 316 317 318 316 318 319 321 322 324 326 324 323 321 318 316 317 316
306 307 305 305 304 304 304 314 314 314 314 314 314 315 316 315 317 317 318 319 319 318 318 319 321 319 320 320 319 316 316 318 315 321 321 321 326 327 327 325 323 316 315 316 317
305 305 305 305 304 303 303 310 314 315 315 313 313 313 315 316 316 316 317 318 319 318 317 317 319 321 322 322 320 320 322 322 317 318 320 320 324 324 327 326 324 318 316 317 317
305 305 305 304 303 302 302 306 313 314 314 315 314 313 315 316 317 315 317 318 319 318 318 317 317 320 325 327 325 320 321 322 321 324 323 323 326 324 327 327 323 319 317 317 318
302 305 304 305 304 303 304 304 309 312 314 312 313 314 314 315 316 317 318 319 319 317 317 316 317 320 323 328 326 326 328 327 324 325 328 329 327 324 327 324 323 319 317 317 318
301 304 303 304 305 304 304 303 305 308 309 310 312 312 312 313 314 315 318 318 317 319 319 319 317 320 321 321 326 327 329 327 325 326 329 328 327 325 327 327 324 320 318 317 318
301 302 304 307 306 305 301 302 303 305 308 310 311 312 312 313 313 313 314 314 316 316 319 318 319 319 320 321 325 325 328 328 326 324 327 326 327 327 326 327 326 321 318 317 318
300 303 304 304 306 305 306 304 304 304 305 308 309 310 310 311 312 313 313 315 315 315 321 318 320 326 329 322 325 326 325 328 327 327 326 327 327 326 327 327 327 324 319 317 317
300 302 304 304 304 305 306 306 307 307 307 308 307 308 309 309 309 310 311 311 310 309 313 322 321 324 329 327 329 330 327 326 327 326 326 326 326 325 326 327 327 327 321 321 319

GFSSW_850_thetae_006.txt.gz
Theta_e
308 308 309 310 310 310 310 310 310 311 311 311 311 312 313 314 316 316 318 323 323 323 323 324 326 326 327 326 326 327 322 323 323 316 315 316 315 317 318 318 318 318 318 317 317
308 308 308 309 309 309 310 310 310 311 311 310 310 311 312 313 314 316 317 319 323 323 323 323 326 326 325 324 325 323 321 323 320 314 315 316 315 317 318 317 316 317 317 316 316
308 308 308 308 308 309 309 310 310 310 311 311 310 310 311 313 314 316 317 318 319 323 322 323 324 323 322 323 323 321 323 320 322 320 318 316 315 317 317 317 317 317 316 315 315
307 308 308 308 308 308 309 309 309 310 310 311 311 310 311 311 314 322 321 322 318 322 322 322 322 322 319 319 323 322 322 322 322 322 317 315 316 318 318 319 319 318 317 316 315
307 307 308 308 308 308 308 309 309 309 310 310 311 311 310 310 313 318 323 321 321 321 323 322 323 322 320 320 321 321 320 319 319 318 318 318 317 317 318 319 319 317 316 315 315
307 308 308 307 307 308 308 308 308 309 309 310 311 311 310 311 314 314 315 317 318 322 323 323 323 324 322 322 321 323 319 318 317 317 317 316 317 318 319 319 318 317 316 315 315
303 305 306 307 308 308 308 308 308 309 309 310 311 310 310 311 313 315 319 316 317 321 323 323 323 323 323 321 322 319 319 317 318 316 316 317 316 316 318 318 317 316 315 315 315
301 301 302 304 306 308 308 308 308 309 309 310 311 311 311 312 313 314 314 321 319 320 323 323 324 323 322 322 320 319 316 317 317 316 317 316 316 316 317 317 316 315 315 315 315
304 302 301 301 303 305 308 309 309 309 309 310 311 313 312 313 313 315 314 315 320 322 322 323 322 322 319 319 318 316 320 318 318 316 316 315 316 316 317 317 316 315 314 315 315
307 306 305 302 300 302 306 308 310 309 313 312 314 311 313 313 314 314 315 315 317 320 322 322 322 317 314 316 319 320 319 318 318 318 315 315 314 314 317 317 317 315 314 315 315
307 307 305 302 302 300 302 307 310 317 317 314 312 312 316 316 317 319 318 316 321 322 319 320 318 317 317 317 319 319 319 319 319 318 317 316 315 317 316 316 316 315 314 315 315
306 305 306 304 302 301 301 305 310 309 310 315 315 315 313 313 314 316 320 321 321 320 318 318 319 318 318 318 318 317 318 318 317 317 316 317 316 315 315 316 316 316 314 315 315
307 306 305 306 305 304 301 304 309 308 311 315 316 315 315 314 315 315 319 322 320 319 318 319 320 319 319 319 320 318 319 318 318 318 315 316 315 316 315 316 317 316 316 315 315
307 307 305 304 306 304 302 304 307 310 313 314 316 317 317 317 316 315 315 322 321 320 318 319 319 320 319 320 319 320 318 319 318 318 317 315 316 315 316 316 316 315 315 315 315
306 307 306 304 305 303 305 305 311 313 308 312 316 317 317 317 316 317 316 321 320 321 319 322 319 319 320 320 318 320 319 318 318 317 316 317 315 315 318 319 316 315 314 315 315
305 306 306 305 304 306 304 307 312 314 316 313 316 316 315 316 316 317 318 319 320 319 319 321 320 319 320 319 318 319 318 315 315 314 315 315 316 316 316 318 318 316 315 315 315
303 306 307 305 304 304 303 305 314 315 313 313 314 315 316 316 316 316 317 317 319 320 320 320 319 319 320 320 317 316 314 316 316 317 318 317 317 317 318 317 317 318 315 316 315
302 305 307 306 305 304 303 309 315 314 313 314 313 315 316 316 316 315 316 318 316 318 319 320 322 319 318 319 318 314 314 315 317 315 315 318 321 320 318 321 321 321 318 315 315
302 303 307 306 305 304 303 310 312 313 313 313 314 315 316 316 316 316 315 317 317 317 321 320 320 319 318 318 318 317 315 314 315 317 318 318 320 321 324 322 319 316 315 315 316
303 303 305 307 305 303 302 307 312 313 313 313 314 313 315 315 316 316 315 316 316 317 317 318 321 319 319 318 316 317 315 317 313 318 319 318 322 323 321 324 321 316 314 315 316
303 304 305 306 305 302 302 303 307 313 313 313 312 313 314 314 315 315 316 317 316 316 317 316 318 319 319 319 318 318 318 318 313 314 316 316 320 318 324 325 324 319 316 317 317
302 304 304 306 304 303 304 304 306 309 313 313 312 312 313 314 314 315 317 316 317 317 317 316 316 319 323 321 321 318 317 319 318 318 319 318 320 320 324 325 326 323 318 317 317
303 303 304 305 306 304 303 304 304 306 311 312 313 313 313 314 315 315 316 316 317 317 315 315 315 317 317 325 325 325 323 319 319 319 324 325 321 320 325 324 324 323 319 318 317
300 303 301 302 304 304 304 304 304 304 306 309 311 311 312 313 313 314 317 316 316 317 317 318 314 317 320 318 325 326 328 324 321 322 323 325 324 324 325 327 324 320 320 318 317
300 301 302 304 304 303 302 303 304 304 306 308 310 311 312 312 312 312 313 314 315 316 318 315 316 316 317 317 322 322 324 326 323 322 324 323 325 324 323 325 326 324 319 317 317
299 301 301 300 304 304 304 304 304 305 303 306 308 311 310 311 310 312 312 313 313 309 314 315 317 315 317 317 317 320 321 326 324 323 325 323 324 322 325 326 326 325 321 318 319
299 301 302 302 305 305 305 305 306 305 306 305 307 307 307 308 309 309 309 309 310 311 309 315 319 319 318 322 321 322 320 325 325 323 323 325 323 322 325 326 326 326 324 323 320

GFSSW_850_thetae_009.txt.gz
Theta_e
308 309 308 308 308 309 309 309 310 311 311 311 311 311 312 313 314 315 316 317 321 323 322 322 323 325 326 327 326 328 329 328 328 328 327 317 319 317 317 318 318 319 318 318 317
307 307 307 308 308 308 308 309 310 310 311 312 312 312 311 312 313 314 315 317 317 321 322 323 323 325 325 324 324 326 328 328 327 325 324 320 318 318 319 319 318 318 318 317 317
307 308 308 308 308 308 308 308 309 310 310 310 311 311 311 311 311 315 316 316 317 318 322 322 322 325 324 323 324 324 325 324 324 324 322 320 317 317 319 320 319 319 317 317 316
307 307 307 308 308 308 308 308 308 309 309 310 310 311 311 310 314 320 320 320 319 317 319 321 323 322 323 323 322 323 324 324 324 321 318 318 317 318 319 320 319 319 318 317 316
307 307 307 307 307 308 308 308 308 308 309 309 310 310 310 310 311 316 322 321 318 319 317 321 322 322 323 322 321 323 324 321 320 318 318 317 318 319 319 318 318 319 317 317 316
302 304 305 306 307 308 308 308 308 308 308 309 309 309 309 311 313 313 314 315 316 318 318 320 322 322 323 322 323 323 322 319 317 317 317 318 318 318 319 318 319 318 317 316 315
300 300 301 302 304 306 308 309 308 308 308 309 309 309 308 312 313 313 314 318 315 316 321 321 322 323 323 324 322 320 322 320 319 318 319 318 319 320 319 318 318 317 317 316 315
306 305 302 301 301 302 304 307 308 309 308 309 309 309 309 313 313 313 312 313 319 319 320 322 322 323 322 321 321 321 320 322 321 318 317 318 322 322 318 318 319 317 315 315 315
308 308 307 306 305 303 302 303 306 308 309 309 310 310 312 312 313 313 313 313 316 317 322 322 322 323 320 323 322 322 325 324 322 318 318 318 321 321 317 318 319 317 315 315 315
307 307 306 307 306 307 305 302 304 308 309 312 314 313 312 313 313 314 315 313 314 317 322 322 321 323 322 323 324 324 323 321 322 321 318 319 319 321 319 318 319 317 316 316 315
308 308 307 305 307 307 307 302 307 313 313 312 313 312 314 313 315 316 317 315 316 321 323 321 324 325 324 323 322 323 323 323 322 321 320 322 322 322 320 318 318 318 316 316 316
306 307 307 306 305 307 304 301 308 307 309 312 314 314 313 315 314 314 318 319 322 322 322 321 325 325 323 322 321 322 323 323 322 320 320 322 322 322 321 320 319 319 317 317 317
304 306 307 307 306 306 305 303 308 308 311 312 311 314 313 314 315 315 320 319 322 322 323 325 325 321 322 322 322 323 324 324 324 321 320 320 321 323 322 319 318 318 318 317 317
304 304 306 307 305 304 304 302 304 306 314 314 315 314 314 315 316 314 315 321 322 323 323 325 322 322 322 324 323 325 323 323 323 323 324 320 324 323 323 323 322 320 317 317 316
303 304 306 307 306 304 303 306 307 309 312 313 316 316 315 316 316 316 314 318 323 323 323 325 322 323 324 324 323 324 322 323 322 323 321 322 322 322 321 324 324 324 319 317 316
302 303 305 306 306 305 304 304 309 316 315 314 316 317 317 316 316 316 317 318 322 323 322 325 321 323 324 323 322 323 322 321 320 321 324 323 322 322 323 324 325 324 320 317 317
302 302 304 307 306 305 304 303 317 317 313 315 316 317 318 317 317 318 318 319 323 325 326 324 324 322 323 324 321 323 324 325 326 326 324 321 322 323 324 325 323 323 322 318 316
302 301 302 303 305 306 304 309 315 314 314 314 314 317 317 318 317 317 318 318 321 324 325 326 326 323 322 325 324 323 325 325 326 324 324 321 323 322 325 325 324 322 322 317 316
301 302 302 303 306 305 303 311 313 313 314 314 314 318 318 318 318 317 318 319 320 324 323 325 324 321 322 323 324 321 323 323 324 321 323 323 324 325 327 327 324 321 318 317 316
299 302 302 303 306 305 304 308 310 312 314 314 315 316 319 318 318 318 318 318 318 321 324 323 324 322 322 322 320 323 321 323 321 324 325 323 325 324 325 327 328 323 320 317 317
299 303 303 303 305 303 306 306 307 310 312 314 315 316 317 318 318 318 318 317 319 319 322 323 324 323 321 323 324 321 323 322 322 322 325 326 324 326 327 331 333 329 321 318 317
300 304 303 304 303 302 306 305 305 307 308 311 314 315 316 317 318 319 318 318 317 320 321 323 325 325 323 322 324 324 324 324 325 326 324 324 325 324 329 331 331 329 322 318 318
300 300 303 303 305 306 305 305 305 305 306 310 314 314 315 317 319 319 318 318 316 319 323 322 327 326 323 327 327 323 323 324 325 325 326 325 325 326 329 330 329 326 321 318 318
299 303 300 303 304 306 306 306 305 304 305 305 307 313 314 315 316 317 318 316 316 318 319 322 325 326 325 324 325 328 326 324 325 325 324 325 324 327 329 330 328 327 322 319 318
300 301 301 303 303 303 305 305 305 306 305 307 308 311 314 315 315 315 316 316 315 319 320 324 325 323 323 322 325 325 325 327 326 325 325 325 327 327 328 330 330 327 322 319 319
299 301 300 301 300 304 305 305 306 305 305 306 308 312 312 314 313 315 315 316 316 315 321 320 324 322 322 321 322 322 322 325 326 325 326 324 326 327 327 328 329 325 321 320 320
299 301 301 303 304 306 306 305 305 305 305 305 306 307 310 311 311 312 311 311 312 314 315 321 325 322 323 321 321 323 322 322 325 325 325 325 326 327 329 330 329 327 323 323 322

GFSSW_850_thetae_015.txt.gz
Theta_e
308 308 308 308 308 309 309 309 309 309 310 310 310 311 312 312 313 313 317 317 319 323 326 329 330 329 329 329 329 330 331 332 331 331 332 331 331 330 327 326 325 324 324 324 325
308 308 308 308 308 308 308 308 309 309 309 309 310 310 311 312 312 316 318 318 316 319 324 330 329 328 328 328 328 330 331 330 329 329 330 330 330 329 329 327 326 324 324 323 323
307 308 308 308 308 308 308 308 308 308 309 309 309 310 311 311 317 318 320 317 318 316 323 328 329 329 328 328 329 330 330 328 327 326 328 329 328 328 328 327 326 325 323 324 323
303 304 306 307 308 308 308 309 309 308 308 308 309 309 310 311 317 321 318 318 315 314 321 325 327 329 330 330 329 330 329 327 325 325 329 328 328 327 326 326 325 323 322 324 323
308 305 303 303 305 306 308 308 308 308 308 308 308 308 309 315 315 315 318 318 317 314 321 323 326 328 331 330 329 330 329 327 325 326 328 327 327 327 326 324 324 323 322 322 323
308 308 309 308 304 303 304 305 306 307 308 308 308 307 308 313 313 314 315 319 325 321 321 323 326 327 328 329 328 328 329 327 326 327 328 326 327 325 326 324 323 324 323 323 323
309 309 308 307 309 309 307 304 304 304 305 306 308 308 312 313 314 315 314 315 317 323 323 321 323 325 326 328 327 328 328 327 327 327 328 326 327 327 325 325 324 324 324 323 323
307 309 309 308 305 307 309 310 308 305 303 304 306 308 314 313 313 313 316 319 321 320 319 323 321 323 326 326 327 328 328 329 328 328 327 326 328 329 326 325 325 325 325 324 324
306 308 308 309 308 306 306 309 310 309 307 303 304 312 314 315 314 314 314 315 315 321 320 322 323 322 325 327 328 329 329 328 329 329 328 327 328 328 326 325 325 325 325 325 324
304 306 307 307 308 308 305 306 308 309 308 306 312 318 317 315 315 316 315 315 316 319 322 323 324 325 327 328 330 330 330 329 329 330 330 328 328 329 327 326 325 325 326 326 325
304 303 304 305 306 307 307 309 312 317 315 315 315 315 316 315 315 316 316 316 316 317 322 323 326 327 328 328 328 329 330 330 330 330 329 329 329 329 327 326 326 325 326 326 326
301 303 303 304 305 307 307 310 312 311 315 319 318 317 317 317 318 315 319 317 317 319 320 326 327 327 327 327 328 330 330 329 330 330 329 330 329 328 327 326 326 326 326 327 327
295 301 303 303 304 306 309 311 310 310 313 313 314 317 316 317 317 318 318 317 318 320 320 325 327 326 327 328 329 330 330 329 330 330 330 329 329 328 328 327 325 325 326 327 327
303 298 302 303 304 310 311 310 309 309 315 317 317 316 315 316 318 317 318 320 319 320 322 325 326 327 327 328 329 330 329 329 329 330 330 328 329 328 328 327 326 326 326 327 328
304 298 300 303 308 311 310 308 308 310 319 322 320 317 317 317 318 317 319 319 321 320 322 324 326 327 327 328 329 329 328 328 328 329 329 328 329 328 327 326 326 326 326 328 328
303 301 299 304 305 308 310 309 309 317 318 320 321 320 319 318 318 319 317 319 320 322 322 323 324 326 327 328 328 329 328 327 328 328 330 328 329 328 327 326 325 326 327 329 328
303 303 299 305 307 307 309 309 314 316 318 320 321 321 320 319 319 320 319 321 324 322 324 323 324 327 327 328 328 328 328 329 330 331 330 328 328 328 327 325 325 327 328 331 328
303 304 300 302 307 306 308 311 315 316 319 321 321 321 321 321 320 320 320 321 323 323 324 325 325 327 328 329 329 328 328 328 330 331 331 329 329 328 327 325 325 328 331 331 328
303 304 303 303 306 306 308 313 314 316 318 320 320 321 322 322 321 321 321 321 322 325 326 326 327 326 328 328 328 328 328 327 329 329 329 330 330 328 326 325 327 330 330 330 327
304 304 303 303 306 305 307 310 312 313 316 319 320 321 323 323 322 322 322 322 322 322 325 327 327 327 327 328 327 327 327 328 328 330 332 330 329 328 326 326 330 332 331 329 326
303 303 304 304 305 306 307 309 310 311 313 314 318 320 321 323 323 323 322 323 323 322 323 325 328 328 327 329 328 326 327 328 329 329 330 331 330 329 328 327 328 332 331 328 326
301 306 305 305 306 305 306 308 308 310 311 313 313 315 319 322 324 323 323 323 323 323 323 326 328 330 328 328 328 327 327 329 329 330 329 330 330 328 327 327 328 331 331 328 326
303 305 306 305 306 308 307 307 307 309 310 311 313 314 316 319 324 324 324 324 323 323 325 327 329 331 331 329 328 328 327 327 329 330 331 330 330 329 329 327 328 330 331 329 327
302 308 305 305 305 307 308 308 307 307 309 310 312 312 313 317 321 324 324 323 323 322 324 328 330 330 331 331 328 328 326 327 328 331 330 330 329 329 329 328 328 330 330 330 327
303 304 303 306 305 305 305 308 309 308 309 309 311 312 313 318 322 323 324 324 323 322 325 330 332 328 328 328 328 327 327 326 327 328 330 330 329 329 329 329 328 330 331 330 329
302 303 303 304 303 305 305 306 307 308 308 310 310 311 313 316 319 322 322 325 324 322 323 331 332 328 327 326 327 328 327 327 326 327 328 329 329 328 327 327 328 328 331 330 330
302 303 303 303 305 307 306 307 307 307 307 308 310 310 311 313 314 316 318 320 325 324 325 327 330 331 328 326 325 328 327 327 326 325 326 328 328 328 327 328 327 328 330 330 330

GFSSW_850_thetae_021.txt.gz
Theta_e
306 307 307 308 308 308 308 308 308 308 308 309 309 309 309 309 310 310 313 318 319 316 325 328 327 328 329 331 331 332 328 330 330 330 329 328 326 328 329 329 329 327 325 326 326
304 304 305 305 307 308 308 308 308 308 308 308 308 309 309 309 309 310 314 317 320 318 317 325 328 328 330 332 332 330 327 330 329 329 328 327 326 327 328 327 329 325 325 326 326
309 307 305 304 304 305 306 307 308 308 308 308 308 308 308 308 308 313 319 321 320 319 317 319 325 331 331 331 331 329 328 328 328 330 330 327 325 326 327 327 327 325 325 325 325
309 309 309 309 308 305 304 304 304 305 306 307 308 308 308 308 311 320 318 317 320 319 319 319 323 328 330 330 331 329 328 329 329 329 330 327 328 326 327 327 326 325 325 325 324
307 308 308 308 308 308 309 308 305 304 304 305 307 307 307 309 309 314 318 314 316 318 318 318 320 322 324 329 330 330 328 329 330 330 329 329 327 326 327 327 326 324 324 324 325
302 303 305 306 306 306 307 308 309 309 306 304 304 304 303 310 311 311 312 313 314 318 317 318 320 320 323 327 329 330 329 329 330 330 329 328 327 326 327 327 326 326 324 323 323
297 305 305 304 305 305 306 306 306 309 310 308 305 303 302 306 311 313 313 313 314 317 318 318 318 320 322 321 324 326 326 327 328 328 326 328 326 325 328 327 326 326 325 323 324
299 296 300 304 304 303 304 306 305 306 307 310 309 305 306 307 310 311 313 315 315 318 321 323 320 319 320 322 322 323 324 327 326 326 327 326 326 325 328 327 326 327 326 325 325
303 302 299 298 301 302 303 301 302 305 305 306 308 307 307 309 310 313 311 312 315 315 318 322 324 321 322 321 321 322 324 325 326 327 327 326 327 326 327 327 327 327 326 326 326
304 304 304 301 298 300 301 299 301 305 306 307 309 310 310 313 313 314 313 311 314 316 316 316 318 317 317 321 323 322 324 326 327 327 326 327 326 327 328 327 327 327 328 328 325
304 303 304 304 301 300 301 301 311 314 310 312 312 310 315 316 317 318 316 315 314 315 316 319 318 320 318 319 323 323 325 326 327 327 326 329 329 330 329 329 328 329 328 328 325
302 303 302 303 303 299 302 302 307 310 311 314 313 313 314 315 315 316 317 317 315 315 315 315 315 317 322 321 324 323 323 324 326 327 329 329 329 329 328 327 328 328 328 328 328
302 302 303 303 303 307 309 311 313 310 311 313 313 314 315 315 315 315 317 317 316 315 315 315 316 317 322 322 324 325 324 324 326 327 328 328 329 329 329 328 329 328 328 328 327
302 303 304 303 303 308 310 311 311 312 312 310 312 313 314 316 318 317 316 317 317 317 316 315 316 319 322 323 324 324 325 325 327 327 327 328 327 328 327 326 326 327 326 328 326
302 303 304 303 303 302 309 310 311 312 312 313 313 315 314 317 320 319 317 318 317 317 317 316 316 317 320 322 323 325 326 326 327 327 327 327 325 325 327 327 326 325 327 328 327
302 302 304 304 304 305 308 309 311 312 312 313 317 316 315 317 319 321 319 318 317 318 318 317 318 318 318 320 323 325 325 325 326 327 329 327 327 326 327 328 327 327 330 329 328
302 303 303 304 304 304 306 309 312 313 310 313 318 316 316 317 319 321 319 318 318 317 319 319 318 319 319 318 319 324 323 326 327 328 327 327 326 324 326 326 325 326 330 329 329
302 303 303 304 304 304 305 310 311 309 309 311 311 313 315 318 317 319 320 318 318 317 318 319 318 318 319 318 319 319 324 325 328 329 327 326 329 328 327 326 326 331 330 330 329
302 303 304 303 304 305 304 310 308 308 308 310 309 311 314 316 317 318 318 319 318 317 318 319 319 320 319 320 320 322 325 324 327 328 327 327 330 328 326 324 325 331 330 329 329
303 303 304 304 305 305 304 307 306 307 308 309 308 309 311 312 316 317 318 319 319 318 318 319 320 321 320 320 320 321 324 327 325 327 328 327 329 331 326 324 325 329 331 330 328
304 303 305 304 305 304 306 308 307 306 307 307 307 308 310 311 313 315 319 320 320 320 318 319 322 323 321 320 319 321 323 326 324 323 326 327 326 326 325 324 330 329 331 330 328
303 304 306 306 305 304 306 306 307 307 306 307 307 307 308 310 313 315 318 320 320 320 319 319 321 322 324 322 321 322 323 325 327 329 324 324 327 326 326 329 330 331 331 329 328
304 303 306 306 308 306 305 306 307 307 307 308 309 310 308 310 314 315 317 317 318 319 320 320 320 323 325 323 322 321 326 325 326 325 327 327 326 328 326 325 331 330 329 328 327
303 303 306 306 306 306 306 306 305 305 306 307 307 308 308 308 309 313 315 317 316 319 323 323 319 320 325 325 324 322 327 326 326 325 326 328 328 328 326 325 326 330 329 328 327
303 305 305 305 305 305 304 305 306 305 305 305 307 308 309 308 310 311 314 315 316 319 314 321 320 322 322 324 326 325 328 327 326 327 327 326 328 327 326 324 325 330 329 328 328
302 304 303 304 305 305 305 306 306 306 307 308 308 308 310 311 310 312 313 314 314 313 312 315 322 321 322 324 324 325 327 327 327 326 327 326 325 326 328 326 326 330 329 328 328
302 302 302 304 304 305 306 307 307 307 307 308 308 308 309 311 310 310 310 310 311 311 312 316 326 322 321 322 323 324 327 327 327 326 325 325 325 327 328 327 327 330 330 329 328

GFSSW_850_thetae_024.txt.gz
Theta_e
304 305 306 307 307 308 308 308 308 308 308 309 309 309 309 310 310 310 312 318 319 318 316 326 324 327 328 330 329 331 328 330 329 328 329 329 325 327 327 328 327 326 326 327 326
309 309 306 305 304 305 306 306 307 308 308 308 309 309 308 309 309 311 317 316 316 315 317 319 327 327 327 329 330 329 327 331 330 328 327 327 326 326 325 325 326 325 324 325 326
306 306 308 309 309 307 305 304 304 305 306 307 308 308 308 308 308 316 316 317 318 315 316 316 322 329 328 329 330 329 329 330 329 328 328 328 327 328 325 323 326 325 325 326 326
303 303 304 305 307 307 309 309 307 305 304 305 306 307 307 307 308 314 317 317 318 318 317 318 317 322 328 327 328 328 329 330 329 329 328 326 328 327 327 326 326 326 325 325 326
298 299 301 301 302 304 305 306 308 310 309 306 304 305 305 305 307 315 318 318 314 318 318 318 318 320 320 326 329 328 328 330 329 328 328 328 326 326 328 330 325 325 325 325 325
300 296 297 299 301 302 304 305 305 307 308 309 309 305 303 305 312 313 313 311 312 317 317 318 318 319 318 321 321 326 328 329 329 329 328 327 327 326 329 329 325 325 324 324 324
303 303 301 298 298 299 300 301 301 304 306 307 307 308 309 305 310 310 311 313 312 311 313 316 318 319 319 317 320 321 321 322 325 326 325 327 325 326 328 328 326 324 324 324 323
305 304 303 303 302 301 300 298 299 300 303 307 307 308 311 310 310 308 310 313 312 312 314 318 317 319 318 319 319 320 319 321 322 323 325 325 326 325 327 326 326 326 325 323 323
303 303 302 303 303 303 302 302 301 299 299 305 307 308 309 310 311 313 311 310 313 314 314 319 321 319 318 317 316 318 320 321 322 322 324 324 326 324 327 326 326 326 326 327 325
302 302 302 302 303 303 302 302 302 300 301 306 308 310 308 311 312 313 312 310 309 312 313 314 322 320 315 317 321 321 319 322 323 324 324 324 324 324 327 325 325 326 327 326 325
302 302 302 302 302 302 303 306 309 313 310 310 309 309 313 312 314 314 314 311 310 313 313 315 319 318 322 320 319 321 321 321 323 323 325 325 325 326 326 324 324 326 326 326 327
302 302 302 302 302 302 306 308 310 307 307 309 311 311 309 310 312 313 316 313 313 313 314 314 314 316 317 317 317 318 321 322 322 323 323 324 326 326 327 326 327 327 328 326 326
302 302 302 302 303 302 308 310 309 308 308 310 310 312 312 310 312 312 314 315 314 313 313 314 316 316 316 319 318 318 320 322 322 322 322 324 326 327 327 327 328 329 328 325 327
302 302 302 302 303 304 305 309 309 308 309 311 312 312 313 313 315 314 314 316 315 313 313 313 315 317 317 316 320 321 321 322 324 323 324 324 327 324 325 325 324 325 326 326 326
302 302 302 303 304 303 303 306 310 309 310 310 310 311 313 314 316 316 316 315 316 315 313 313 315 315 315 315 317 321 321 322 324 324 323 324 324 323 323 325 324 322 326 326 326
302 302 303 303 303 303 304 307 310 309 311 310 310 309 312 313 314 319 317 316 316 316 315 314 315 315 315 316 317 321 322 322 323 323 325 324 324 326 324 325 325 325 324 326 325
302 302 302 303 303 303 304 307 310 312 309 309 309 308 310 314 314 316 318 316 316 316 315 316 315 316 316 315 317 320 320 322 323 325 326 324 326 327 324 324 323 325 326 326 326
302 302 302 302 303 304 305 307 311 308 308 308 308 308 312 310 312 316 318 317 315 316 315 316 317 317 317 316 316 317 319 322 324 326 326 324 326 326 323 324 325 327 327 327 326
302 302 303 303 303 305 305 309 306 307 307 307 308 308 308 308 310 313 316 318 316 316 316 315 317 318 318 317 317 316 316 317 322 325 324 324 325 326 323 327 326 326 327 327 327
301 303 304 304 304 305 304 305 306 306 306 307 307 307 308 307 309 311 314 317 318 317 316 316 317 318 318 317 317 316 319 320 319 324 326 326 327 327 323 328 328 327 326 327 327
302 302 304 305 305 304 303 304 304 306 307 307 306 307 307 307 308 310 312 316 317 318 317 316 317 320 318 316 316 315 316 318 320 321 324 325 325 321 322 322 329 326 326 328 327
302 300 303 305 305 304 305 304 305 306 306 307 307 308 308 309 308 311 313 314 312 315 317 316 314 317 318 318 317 316 316 317 322 323 322 323 324 323 322 324 327 327 327 328 328
302 302 304 305 305 305 304 305 305 306 306 307 307 308 308 308 309 311 314 313 311 314 317 317 316 317 319 319 319 317 317 319 320 321 323 325 324 323 325 326 328 328 328 327 328
301 300 304 304 303 304 305 305 305 305 305 304 305 305 306 308 309 308 309 310 310 312 314 313 318 317 319 321 320 319 318 320 323 324 323 325 324 326 324 327 326 328 328 328 327
302 301 304 302 302 302 302 303 305 305 305 305 304 303 306 308 309 308 308 309 311 313 311 309 318 317 317 319 321 321 320 320 325 323 326 324 324 325 323 327 327 328 327 326 327
301 303 303 302 303 302 302 304 306 306 307 306 306 308 308 309 309 311 308 310 311 312 310 309 314 319 318 318 318 319 321 320 324 324 323 324 325 323 323 327 328 327 326 326 326
301 301 301 301 300 299 301 305 307 306 307 307 307 307 307 308 309 310 310 310 310 310 310 309 314 317 319 319 318 318 319 322 324 325 323 323 322 322 324 322 327 327 327 326 326

GFSSW_850_thetae_027.txt.gz
Theta_e
309 309 307 306 305 305 306 306 307 308 308 308 309 309 309 309 312 313 315 318 317 316 315 315 324 326 328 328 329 330 327 328 328 328 328 327 326 329 328 326 326 326 326 326 326
305 305 306 307 309 308 307 306 305 306 307 308 308 308 309 309 310 313 324 319 319 315 312 315 321 324 327 328 329 328 326 328 328 326 326 327 326 327 325 326 325 326 326 325 326
299 301 303 304 305 305 307 308 309 307 305 305 306 307 307 307 308 315 318 320 320 317 313 312 317 326 326 327 328 327 328 327 328 330 329 327 327 328 326 322 326 326 326 325 325
298 297 296 298 300 302 303 305 306 307 309 308 306 305 305 305 307 316 318 317 317 318 317 311 315 327 326 326 327 328 327 329 328 329 329 327 328 327 327 327 328 327 326 325 325
303 303 301 298 296 297 299 301 303 304 305 307 309 308 306 303 305 315 317 316 317 315 317 312 316 317 318 322 326 327 326 327 328 329 329 329 327 327 327 328 328 326 326 325 325
306 304 303 303 303 301 299 299 298 300 303 305 308 307 309 306 308 310 314 315 313 313 317 313 317 318 318 318 318 322 324 325 327 328 328 328 327 327 326 326 327 326 326 325 325
303 303 302 302 302 303 303 302 300 299 299 302 307 307 310 312 309 309 309 311 313 311 311 317 317 318 318 316 318 318 317 318 319 322 324 326 324 325 326 326 326 325 325 325 325
301 301 302 302 302 302 302 302 302 301 300 300 303 309 310 309 310 311 309 311 312 312 311 311 315 318 318 318 318 317 317 319 319 321 322 322 323 324 326 326 326 325 325 324 324
301 301 301 301 301 301 302 302 302 303 302 301 306 308 309 307 309 312 312 311 312 312 312 313 316 318 317 316 314 315 316 316 317 319 320 322 323 323 325 325 325 325 325 324 324
301 302 301 301 301 301 301 301 304 308 303 304 306 308 307 309 309 309 311 312 309 309 309 311 315 315 313 313 316 316 316 317 318 320 319 321 322 323 324 324 324 325 325 325 324
301 302 302 302 301 301 301 303 308 310 308 307 306 306 310 310 311 312 311 310 308 310 309 312 313 319 319 319 318 316 318 319 320 321 321 321 322 322 323 323 324 325 324 324 325
301 301 302 302 302 301 302 304 308 306 306 307 307 309 308 309 310 311 313 310 309 308 310 312 313 316 320 320 319 319 318 319 320 321 321 320 321 321 322 322 325 327 327 324 324
302 302 302 302 301 301 302 304 304 304 306 308 308 308 308 307 311 310 313 312 311 310 310 311 314 315 319 318 321 321 319 319 319 321 320 320 321 321 322 324 326 327 328 328 328
303 302 302 301 302 303 302 303 305 306 308 309 311 309 309 310 311 309 311 315 313 311 310 310 312 314 316 317 316 317 317 318 319 320 322 321 323 322 322 323 323 325 326 327 325
302 302 301 301 303 304 302 303 306 306 306 307 309 311 312 311 313 311 310 313 315 313 312 311 312 313 314 314 315 317 318 319 319 320 321 323 322 321 321 323 322 320 324 325 325
302 302 302 301 302 302 303 304 307 309 310 308 308 307 310 312 312 313 314 312 314 315 312 311 314 313 314 316 316 317 317 318 318 319 322 322 322 322 322 323 322 323 323 324 324
302 303 301 302 302 302 303 305 309 310 308 307 307 307 308 308 313 313 314 314 314 315 315 313 312 314 314 314 314 315 313 316 319 321 324 322 322 324 322 322 322 322 323 324 325
303 302 301 302 302 302 304 305 308 307 308 308 307 306 308 307 307 310 313 316 314 314 314 315 314 313 314 314 314 314 315 319 322 323 324 322 324 324 322 322 324 324 325 325 325
302 301 304 304 303 303 304 305 305 307 306 306 306 307 307 307 307 309 310 313 315 314 314 315 315 316 315 315 314 314 317 317 319 321 322 322 322 323 323 325 324 324 325 325 325
301 301 303 305 303 303 304 303 304 305 305 306 306 306 306 307 307 307 310 313 315 315 313 315 314 316 316 315 314 313 314 317 315 321 325 323 324 325 324 326 325 325 324 325 325
301 301 303 305 304 303 304 302 304 303 304 306 306 306 306 307 307 307 310 312 311 312 314 314 314 317 316 315 315 313 314 313 315 317 321 322 323 321 322 325 325 323 325 326 326
301 298 302 304 303 303 304 304 304 304 305 305 306 306 308 308 308 307 309 311 310 312 313 314 312 315 315 315 316 316 315 314 317 318 318 320 322 321 320 323 324 324 325 326 327
301 300 303 305 305 305 305 304 304 305 305 306 306 305 306 307 306 309 310 311 310 310 311 313 315 315 314 318 315 315 315 315 314 317 320 322 322 319 319 319 325 324 326 327 326
301 301 302 303 301 303 304 304 304 304 304 304 303 304 304 305 306 308 308 307 308 308 312 309 313 317 316 317 317 315 315 314 315 315 318 322 322 324 323 324 325 326 326 327 327
301 299 303 300 301 301 301 302 304 305 305 304 304 303 304 305 307 308 308 308 308 308 310 308 311 316 318 316 316 319 316 316 317 317 318 319 321 321 322 323 325 327 326 326 326
301 301 300 300 301 301 301 304 305 306 307 306 306 306 307 307 309 309 309 309 310 309 310 307 309 314 320 318 316 316 318 316 316 317 319 321 321 320 321 325 326 327 325 325 326
301 301 300 301 301 298 299 303 304 306 306 306 306 305 306 307 308 307 308 309 309 309 310 309 310 310 318 319 316 316 316 317 317 319 320 322 322 319 321 325 325 326 326 326 327

GFSSW_850_thetae_030.txt.gz
Theta_e
304 305 305 306 306 307 308 308 307 305 306 307 308 308 308 309 310 310 314 322 317 314 316 317 319 323 326 327 328 328 325 326 327 327 326 326 326 327 328 328 327 326 326 326 326
298 298 300 300 302 304 305 306 308 309 308 306 306 306 307 307 308 309 319 319 317 316 315 313 315 322 327 327 328 327 325 325 324 324 325 325 327 327 327 327 327 325 326 326 325
303 302 301 299 297 298 300 302 304 305 306 308 308 306 305 305 305 310 314 316 320 322 318 313 313 322 327 326 328 326 327 326 325 326 327 327 328 328 326 324 327 327 329 328 326
303 303 303 302 302 301 298 298 298 300 302 304 306 309 309 306 305 312 313 315 316 318 318 313 312 325 323 324 326 326 326 327 326 326 327 326 328 328 328 327 328 329 329 327 325
302 302 302 302 302 302 302 302 301 298 299 300 304 305 308 309 305 312 315 316 315 316 317 315 313 324 324 323 325 325 325 327 327 327 327 327 327 327 328 329 329 328 326 326 327
301 301 301 301 302 302 302 302 302 302 301 299 301 304 308 310 310 310 310 314 314 310 317 315 313 316 318 316 319 322 325 325 326 326 325 326 325 326 327 328 327 327 327 327 326
300 300 301 301 301 301 301 301 301 302 302 302 300 305 308 309 310 310 309 309 311 310 310 316 313 316 317 316 317 317 316 315 317 318 319 321 321 322 324 325 325 325 326 326 326
300 300 300 301 301 301 301 301 301 301 302 303 301 307 306 306 308 310 310 309 308 309 310 310 315 316 316 316 316 316 315 317 316 318 318 320 319 320 322 323 324 325 325 326 326
299 299 300 301 301 301 301 301 301 302 305 306 305 305 305 303 306 309 309 310 311 309 309 311 312 318 315 315 314 314 315 314 314 316 317 318 318 319 322 323 323 323 325 325 326
299 300 300 301 301 301 301 301 302 307 307 305 305 304 304 305 308 309 309 308 310 309 308 309 314 313 311 313 314 314 314 314 314 317 315 316 317 318 320 321 321 323 324 325 325
303 301 301 301 301 301 301 301 307 307 305 306 304 305 305 309 309 310 309 309 308 308 306 309 310 316 314 314 313 314 314 314 316 318 318 317 318 320 320 321 320 322 323 324 325
302 302 302 302 301 301 301 302 305 303 304 307 307 307 306 305 307 308 310 309 308 309 308 309 311 312 315 315 315 316 315 316 317 318 319 318 319 319 319 319 321 322 323 325 325
302 302 302 301 301 302 303 303 303 304 303 306 306 307 307 306 308 307 309 309 309 308 308 309 311 312 316 317 318 318 318 317 318 318 318 319 318 319 320 320 321 323 324 325 327
302 302 302 302 302 302 302 302 303 305 306 307 308 308 308 307 309 307 310 310 311 308 308 308 310 312 315 317 318 318 319 320 320 318 317 318 321 319 320 320 320 322 324 326 326
302 302 303 302 302 303 302 302 303 306 305 305 309 310 308 308 309 309 307 311 313 311 308 308 309 310 313 316 318 317 318 320 318 316 317 318 320 320 319 321 321 320 323 324 323
302 302 303 303 303 301 303 303 306 307 308 307 307 306 306 311 311 311 309 309 313 311 310 310 312 310 312 314 317 316 316 316 316 316 318 318 320 320 320 321 321 320 323 323 323
301 301 301 301 302 302 302 304 306 306 306 306 306 306 307 307 310 311 312 308 311 314 312 311 310 312 312 313 313 314 313 313 315 317 319 318 319 320 320 320 321 321 322 323 324
301 301 302 304 303 302 304 303 305 305 305 306 306 306 306 307 306 308 311 312 309 311 314 314 312 312 312 312 312 313 313 314 316 319 322 319 322 321 320 321 323 322 322 323 324
300 301 303 304 303 302 303 303 302 306 305 306 305 306 306 306 306 307 308 313 312 312 312 314 315 314 314 313 314 313 314 313 316 319 320 320 320 320 320 320 321 321 323 323 324
301 302 303 304 303 303 304 302 303 304 303 304 306 306 306 305 306 307 308 311 311 311 311 312 314 314 313 314 313 313 313 314 314 320 323 321 322 322 322 322 324 323 322 323 324
301 301 302 304 303 303 299 301 303 303 304 303 306 306 305 306 308 306 306 309 310 309 310 312 312 314 313 314 312 310 314 313 313 315 319 321 321 319 321 321 323 322 323 324 325
300 296 302 304 303 302 300 303 303 304 303 304 305 305 305 306 307 307 306 307 308 309 308 310 311 314 314 313 314 313 311 312 316 315 315 318 320 318 320 320 321 322 324 324 325
300 300 302 303 304 301 302 304 304 304 304 305 305 305 304 304 306 307 308 309 307 308 308 311 312 314 314 315 313 314 312 313 312 312 317 316 317 318 319 320 321 322 324 325 325
300 297 301 303 301 303 303 302 303 304 304 304 303 303 303 304 304 305 307 307 307 307 308 310 309 314 315 315 313 314 314 313 311 312 316 317 318 321 321 320 320 323 324 325 325
301 297 301 302 300 300 301 302 304 305 305 304 304 304 305 306 307 307 308 309 308 307 309 309 309 312 313 315 316 315 315 314 314 314 315 317 320 320 320 320 321 324 324 325 325
301 301 300 300 300 301 299 303 303 304 306 306 306 306 305 305 306 307 308 309 310 309 310 309 308 309 311 315 317 317 315 315 315 314 314 316 315 317 319 321 324 325 325 325 325
300 300 300 301 300 300 298 302 303 302 303 305 306 305 305 305 306 306 306 306 307 309 310 310 308 308 309 310 314 317 317 315 315 314 315 316 317 318 321 321 323 325 326 326 327

GFSSW_850_thetae_033.txt.gz
Theta_e
299 299 299 299 300 302 302 304 306 307 308 309 307 307 307 308 310 311 314 320 320 316 313 317 320 321 325 326 326 328 329 327 326 327 327 328 329 326 327 328 327 327 328 328 327
302 301 302 301 301 300 299 300 300 303 305 306 307 309 308 307 307 309 318 316 318 314 314 313 315 320 325 326 328 329 329 327 326 326 327 327 328 328 328 328 329 328 327 328 328
302 302 302 302 302 302 302 302 300 299 300 302 304 306 308 309 307 308 313 315 317 315 313 312 312 319 325 327 327 328 330 328 327 326 326 327 327 328 328 329 328 329 329 329 328
301 301 301 302 302 302 302 302 302 302 301 300 300 301 305 306 309 311 312 314 317 318 313 312 319 324 324 327 327 328 328 328 328 327 326 327 327 328 328 328 328 328 328 329 328
300 300 300 300 300 301 301 301 302 302 302 302 302 299 301 307 308 309 312 315 314 317 315 314 320 320 322 324 325 328 327 328 328 328 328 327 328 328 327 327 327 328 328 327 328
299 299 300 300 300 300 300 300 301 301 301 301 301 301 303 306 308 309 310 314 313 311 313 312 314 320 320 323 324 325 325 325 326 327 327 327 326 325 324 324 324 324 325 325 325
298 298 299 300 300 300 300 300 300 300 300 301 302 304 306 305 307 309 309 310 309 308 308 311 313 315 317 319 319 320 322 323 322 323 323 321 321 321 320 321 322 323 323 324 324
297 297 298 299 299 300 300 300 300 300 300 301 304 306 305 303 304 307 308 311 309 308 307 309 310 315 316 316 317 318 319 320 320 319 319 319 320 321 320 321 322 322 324 324 324
298 301 300 300 300 299 300 300 300 301 303 305 305 305 305 303 303 305 305 307 309 309 307 309 311 316 316 318 319 319 321 320 320 318 319 320 321 321 320 320 321 322 322 323 323
301 302 301 301 301 300 300 300 302 306 307 304 305 304 303 306 308 308 309 309 308 309 309 309 312 315 316 318 321 319 318 319 319 319 318 319 320 320 320 321 321 322 323 324 324
300 301 302 302 302 301 301 301 306 306 304 306 305 305 304 304 304 306 309 308 309 308 311 309 312 316 315 317 318 321 320 321 320 318 318 321 322 322 321 321 322 322 323 323 323
301 302 302 302 301 301 302 304 303 304 304 304 303 305 304 305 306 306 306 309 309 310 311 310 312 314 316 316 315 316 317 318 318 318 319 321 321 322 322 321 322 322 322 323 325
302 302 302 303 302 303 301 302 303 303 305 305 306 306 306 306 307 306 308 309 310 310 311 313 314 313 314 316 315 316 317 317 318 321 321 321 322 322 322 322 321 322 324 324 325
302 302 302 303 302 302 302 302 302 303 307 306 307 307 308 308 309 308 306 309 310 311 310 312 313 313 313 315 316 318 317 317 318 319 322 321 324 323 321 321 324 325 326 325 323
300 300 302 303 304 303 301 302 302 305 303 305 310 308 307 309 309 310 308 308 311 311 311 311 311 312 313 314 316 317 318 318 318 320 321 321 321 322 323 321 322 324 326 325 323
300 300 301 301 302 301 302 302 305 307 303 306 307 307 307 308 308 308 309 307 310 313 311 313 311 312 313 314 316 317 319 320 320 321 322 321 320 323 321 321 323 325 326 323 324
301 300 301 302 302 302 302 303 305 305 303 307 307 306 306 308 309 308 310 309 311 314 315 313 312 312 312 314 316 318 319 321 321 322 323 321 321 321 322 323 325 325 326 324 324
301 300 303 302 303 302 302 304 304 302 304 306 306 306 306 306 306 305 309 314 309 313 316 316 315 313 312 313 315 318 320 321 324 324 321 321 320 320 323 322 322 324 325 324 325
300 302 303 303 303 302 303 303 302 306 305 304 305 304 306 305 306 305 308 314 312 309 312 316 316 315 313 314 315 317 319 318 319 322 320 322 323 324 325 326 326 324 324 326 327
300 302 303 303 302 302 303 302 303 304 304 304 305 306 305 305 306 306 307 310 311 311 312 314 316 316 314 314 316 317 318 317 318 319 320 323 325 323 327 327 328 328 327 326 326
300 301 302 304 303 303 304 303 304 303 304 304 304 305 304 304 307 307 305 306 309 310 310 313 316 316 315 314 315 315 317 317 318 319 318 318 321 328 328 329 329 329 328 326 326
300 303 301 304 303 302 304 304 303 304 304 305 305 305 305 306 306 307 307 307 308 308 312 311 317 318 317 316 316 315 317 318 317 319 318 320 320 323 327 326 328 329 327 326 327
300 300 301 302 303 304 302 303 304 304 305 305 305 304 305 305 305 306 308 308 308 308 308 311 317 317 318 316 316 317 316 318 319 320 319 319 321 323 323 325 326 328 326 326 326
300 302 300 301 300 302 301 303 304 304 305 305 305 305 305 306 305 305 306 306 308 307 309 309 314 317 318 317 317 316 316 316 318 319 318 318 319 322 324 324 326 327 327 326 327
300 301 300 301 301 300 300 301 304 304 304 305 306 306 307 306 306 306 307 308 309 308 310 310 312 313 314 313 315 318 316 316 317 318 318 319 319 320 323 322 326 327 326 326 327
300 301 301 301 300 300 300 303 304 304 303 304 306 305 306 306 306 307 307 309 311 310 310 310 313 312 314 315 315 317 318 317 316 316 317 318 320 321 321 323 326 327 326 327 327
300 300 300 301 300 301 301 302 302 302 303 304 304 306 306 306 306 306 305 306 308 309 311 311 312 313 317 314 315 318 318 318 317 316 317 318 318 319 321 323 325 328 327 327 328

GFSSW_850_thetae_036.txt.gz
Theta_e
303 303 302 302 302 302 302 302 302 303 305 307 308 309 309 309 310 309 311 315 314 315 315 316 317 325 327 328 329 328 330 330 330 330 330 330 331 330 330 330 330 330 330 330 329
301 302 302 302 302 302 302 302 302 302 302 303 304 306 308 309 309 310 313 313 313 312 315 321 320 322 327 329 329 330 331 330 330 330 330 330 330 330 330 330 329 329 330 330 331
300 301 301 301 301 301 302 302 302 302 302 302 301 301 303 305 308 311 313 314 314 317 314 318 319 322 325 326 329 330 332 331 331 330 329 329 329 329 329 331 329 329 329 329 330
299 300 300 300 300 300 300 301 301 301 302 302 302 302 302 302 313 312 311 311 311 314 315 316 319 319 323 326 328 331 330 330 330 330 330 331 330 330 330 330 329 328 328 328 328
298 298 299 299 299 300 300 300 300 300 300 301 301 301 302 310 309 309 311 314 314 315 315 316 318 320 326 325 325 330 330 330 330 330 330 330 330 330 330 328 328 327 326 326 326
297 297 298 298 298 299 299 300 300 300 300 300 301 301 307 309 308 309 309 311 314 314 319 317 317 320 325 326 326 326 327 328 329 330 330 330 330 329 329 327 326 325 324 324 324
297 298 299 299 299 299 299 299 300 300 300 300 300 305 308 307 305 307 308 308 311 310 314 316 316 319 323 325 324 324 327 327 328 328 329 329 330 329 326 324 324 323 324 324 322
298 299 300 300 300 300 300 300 300 300 300 300 301 307 307 303 304 303 306 307 310 310 310 311 314 316 318 320 321 324 326 327 327 327 326 326 328 327 325 325 324 324 324 323 322
299 299 300 301 301 301 301 300 300 300 301 303 307 309 307 306 305 305 307 308 310 311 311 310 311 314 318 320 323 324 326 327 327 326 325 324 326 327 324 324 324 324 325 323 323
302 301 301 302 302 301 301 301 301 304 307 308 308 307 306 304 308 310 309 311 310 311 312 311 312 316 319 322 327 326 326 326 328 327 323 324 325 326 324 324 325 325 325 324 324
302 302 302 302 302 302 302 305 307 308 307 307 306 307 305 305 306 306 309 312 312 311 315 313 314 317 320 321 323 325 327 328 327 326 326 326 326 326 325 326 327 326 325 324 326
300 301 302 302 302 301 303 304 305 305 306 305 305 304 304 304 306 306 306 310 313 314 315 316 315 318 318 320 321 323 325 327 327 326 327 325 326 328 328 328 327 325 325 326 327
301 300 300 301 302 304 304 305 304 305 307 305 305 306 307 307 307 306 306 308 313 315 315 317 317 316 317 319 320 321 323 325 325 325 325 324 325 327 328 327 326 325 324 323 327
302 301 300 300 304 304 305 304 304 305 308 306 309 309 309 309 311 309 309 307 311 314 315 315 317 317 316 317 320 321 321 320 321 322 324 324 329 328 328 328 328 326 324 325 329
302 302 300 300 303 304 304 304 305 305 305 307 311 309 309 310 310 312 311 309 310 313 315 315 316 317 318 317 318 319 319 320 320 322 323 323 325 328 328 328 328 327 325 327 330
302 300 300 304 303 303 304 304 305 309 305 306 308 309 309 309 310 309 310 311 309 310 315 315 315 316 318 317 317 318 319 320 321 322 325 324 326 328 329 329 329 328 324 329 331
300 300 302 303 304 303 304 305 308 306 305 306 308 308 308 308 309 310 310 313 312 310 313 316 316 315 316 317 317 318 320 323 325 327 327 326 328 329 328 327 326 326 327 331 331
300 302 304 304 305 303 304 307 305 303 304 306 306 306 306 308 307 307 308 313 314 311 313 316 318 316 315 317 318 319 322 322 325 329 329 327 328 329 326 326 325 324 324 330 331
301 304 305 304 302 303 305 306 305 305 305 305 305 305 305 306 306 307 308 308 313 312 314 317 318 317 316 316 318 319 323 322 327 328 326 330 328 325 325 326 325 327 324 329 331
302 304 304 303 302 305 307 305 305 305 305 306 306 305 306 306 305 307 307 310 309 312 314 316 319 319 316 317 318 320 321 324 324 328 328 326 326 326 326 327 326 328 329 330 332
304 305 304 303 303 304 307 306 306 305 305 306 306 305 305 306 306 307 307 309 308 309 311 315 317 320 318 317 318 319 322 322 324 324 327 328 325 324 327 326 328 331 331 333 332
303 307 302 304 306 305 306 304 304 306 306 307 307 306 307 306 307 307 308 309 308 308 312 314 318 322 319 318 319 319 320 322 323 324 324 325 323 326 328 330 330 331 331 332 331
304 304 303 305 307 305 303 304 304 306 305 307 307 306 307 307 307 306 307 308 308 309 311 311 317 321 321 320 318 319 320 322 323 325 325 324 321 322 328 329 331 333 332 331 331
304 308 305 304 303 302 302 305 305 304 305 305 307 307 308 308 307 307 307 307 308 309 308 310 315 319 322 320 319 319 319 321 322 323 323 322 321 323 328 329 331 332 331 331 331
303 305 303 306 305 302 303 303 305 305 305 305 307 307 307 308 308 307 307 308 308 310 310 313 315 317 318 318 318 321 319 319 321 321 322 321 321 321 326 327 329 329 331 331 332
303 302 302 302 302 303 303 305 305 305 304 306 306 306 306 307 307 309 308 309 310 307 312 313 317 316 318 317 318 319 320 319 319 320 321 320 321 321 322 322 322 329 331 331 332
301 301 302 302 303 303 305 304 304 303 304 305 306 307 308 308 307 306 306 307 308 310 311 313 315 317 318 317 319 320 320 320 319 320 320 321 321 321 322 323 323 326 329 330 332

GFSSW_850_thetae_042.txt.gz
Theta_e
300 300 300 300 300 301 301 301 301 302 302 303 303 304 306 306 309 308 311 315 318 318 318 321 330 329 332 333 331 327 328 330 331 332 332 332 332 331 331 332 333 331 331 331 331
299 299 299 299 299 300 300 300 300 301 301 301 302 303 304 304 306 307 314 312 317 317 318 319 323 327 329 329 329 327 328 329 330 331 333 332 332 332 332 333 332 332 332 331 331
297 297 297 298 298 298 299 299 300 300 300 300 301 301 302 303 308 313 315 315 314 316 317 317 321 326 325 327 329 329 330 329 330 332 332 332 332 332 332 333 332 332 331 332 332
298 298 298 298 298 298 298 298 298 299 299 300 300 300 301 302 315 317 313 315 314 314 314 315 317 322 328 327 326 331 331 330 332 332 332 333 332 333 333 332 333 333 332 331 331
298 298 298 298 298 299 299 299 299 298 298 299 300 300 301 308 311 314 313 313 312 314 314 314 315 318 322 327 327 328 328 329 331 332 332 332 333 333 333 332 332 332 332 332 332
299 299 299 299 299 300 300 300 300 299 299 299 299 299 307 309 309 311 312 314 314 316 317 319 319 319 321 323 327 328 328 328 329 330 330 331 331 331 332 332 332 332 332 332 332
301 301 301 301 300 300 301 301 301 301 300 300 299 300 308 307 308 310 310 312 314 315 316 318 322 321 322 323 324 326 329 330 330 329 331 330 332 332 330 330 330 331 333 332 332
301 300 300 300 300 301 301 301 301 302 301 300 300 306 309 307 309 310 309 309 310 311 312 314 316 317 321 322 323 326 328 330 330 330 330 330 332 332 330 330 330 331 332 332 330
302 302 302 301 300 300 300 300 302 306 307 303 302 310 311 310 310 310 309 309 309 310 311 313 315 317 319 322 324 325 329 328 329 329 329 331 332 332 330 330 331 331 329 330 330
302 302 302 302 301 300 300 300 308 308 309 311 311 311 311 312 309 310 311 312 310 309 311 313 314 317 318 320 325 325 326 326 328 329 330 330 331 331 330 330 331 330 329 328 329
302 302 302 301 300 300 302 307 308 310 312 313 313 312 311 310 309 308 308 309 312 314 314 314 316 318 318 319 320 323 325 325 328 327 328 330 330 331 332 331 331 330 329 329 330
301 301 301 300 300 305 309 309 308 307 308 308 307 307 307 307 307 307 308 308 310 315 315 315 318 319 318 318 319 321 323 325 326 325 327 329 331 332 332 332 331 331 330 329 329
301 301 301 301 301 309 308 308 307 307 308 307 306 307 308 308 308 308 308 308 309 311 314 315 316 317 318 318 319 321 322 324 324 324 326 328 330 332 331 331 330 330 329 330 328
301 301 301 302 307 307 307 307 306 307 308 309 309 309 309 308 310 309 310 309 309 309 311 313 316 315 318 319 319 321 320 321 322 324 327 327 331 333 332 332 333 331 331 329 328
301 301 301 308 307 308 306 307 307 306 311 311 311 311 311 312 313 312 313 311 309 309 309 310 313 316 316 319 319 320 320 321 322 324 326 326 328 329 330 331 331 331 330 328 328
301 302 305 307 307 308 307 306 307 310 312 310 310 311 311 311 311 313 313 313 312 311 311 310 311 313 317 317 318 320 320 320 322 324 327 328 327 328 329 330 329 330 328 328 329
301 305 306 307 307 307 307 307 310 312 310 309 308 308 308 309 310 311 312 313 313 316 316 313 312 311 313 316 318 319 323 324 324 325 327 326 327 329 328 329 329 329 329 329 330
302 307 308 308 307 307 307 308 311 308 307 308 307 308 307 307 307 308 310 311 310 311 315 318 318 311 313 315 318 319 323 323 324 324 325 324 327 327 328 329 328 328 329 330 331
303 309 309 308 308 308 308 313 308 308 307 308 308 310 309 309 309 309 308 310 311 314 316 316 318 316 312 315 317 320 321 323 324 324 324 326 327 328 329 330 330 331 330 331 336
306 309 310 308 307 309 310 311 308 307 308 308 309 310 310 309 309 309 310 311 312 311 312 312 315 316 317 313 316 319 320 322 324 324 327 326 328 330 333 333 331 332 332 331 337
308 310 310 308 309 310 312 310 308 306 307 307 309 309 310 311 310 309 309 310 312 311 311 312 314 316 317 315 316 319 319 321 325 324 326 328 328 334 333 330 331 333 330 331 337
308 312 308 308 310 310 310 308 307 307 307 307 308 308 310 310 310 311 311 311 311 310 310 312 316 320 318 318 316 320 320 322 325 326 325 327 328 331 330 329 331 331 329 334 336
310 309 310 308 312 310 307 308 307 307 309 310 307 308 309 310 311 311 311 310 310 310 312 312 316 318 318 318 320 321 321 323 325 329 328 327 329 330 327 329 329 332 328 336 336
310 312 309 308 308 309 309 308 308 308 308 307 308 308 309 309 309 310 310 310 310 311 312 312 313 315 320 320 320 324 323 322 324 326 326 328 327 327 328 331 331 333 336 336 336
310 310 308 312 309 308 308 308 308 309 307 307 308 308 309 310 310 310 310 310 310 310 312 313 314 314 315 314 317 320 321 322 323 326 326 327 329 327 331 333 336 337 337 336 336
308 306 306 306 307 308 308 308 309 308 307 308 308 308 308 309 310 310 310 310 310 312 311 312 314 314 317 315 314 316 319 322 322 323 326 328 329 329 329 329 334 335 335 336 335
307 306 305 306 308 309 309 307 308 307 307 307 308 308 308 309 309 309 309 309 310 311 312 313 315 319 318 315 317 319 322 324 325 325 326 328 330 330 329 327 330 334 335 335 334

GFSSW_850_thetae_045.txt.gz
Theta_e
298 298 298 299 299 299 300 300 300 301 301 301 302 302 303 305 308 307 310 317 315 318 318 322 317 324 331 331 330 331 327 324 325 327 328 330 329 331 331 331 332 332 332 331 332
298 298 298 298 298 298 298 298 299 299 300 301 301 301 302 302 305 308 315 313 314 315 319 318 323 329 331 331 332 332 327 326 325 326 328 329 330 331 331 332 332 332 332 331 331
298 298 298 298 298 298 298 299 298 298 298 299 300 301 301 301 304 310 313 314 315 314 317 317 318 322 326 327 331 330 329 326 326 327 328 329 331 332 332 331 332 332 331 332 332
300 299 299 299 299 299 299 299 299 299 299 299 299 299 300 300 311 315 314 313 315 314 316 316 315 317 319 325 327 328 329 328 327 328 328 329 331 332 331 331 332 332 332 332 332
301 301 301 301 301 300 300 300 300 300 300 299 299 299 299 304 303 314 310 313 313 314 313 314 314 315 315 321 325 324 325 327 330 330 329 330 331 331 331 331 331 331 331 332 332
300 300 300 300 300 300 301 301 301 301 301 301 300 300 302 307 304 306 310 311 313 314 314 314 314 315 315 317 319 324 326 327 327 327 328 329 329 330 330 331 330 330 329 330 330
302 301 301 301 301 300 300 300 300 301 301 303 301 300 305 303 303 309 310 311 313 313 315 316 317 316 318 317 319 320 321 322 324 326 326 327 327 328 329 329 330 330 330 330 330
301 301 301 302 302 301 301 300 300 300 304 306 305 302 307 303 307 308 308 310 311 312 313 314 315 314 315 319 320 321 321 322 322 324 327 327 328 328 329 329 329 330 329 329 329
301 301 301 300 300 300 300 301 301 305 307 307 308 306 310 311 310 309 308 309 309 309 310 311 312 313 314 316 317 319 321 321 323 324 326 327 327 327 328 329 329 329 329 329 330
301 301 301 301 301 300 302 306 308 309 309 311 311 311 310 310 311 310 311 310 311 310 309 310 312 312 312 314 318 320 321 322 322 324 325 326 326 326 327 327 328 328 329 329 330
300 300 301 301 301 300 307 307 308 310 311 309 309 313 313 313 311 309 309 309 308 313 309 310 310 313 313 314 316 319 322 322 323 323 324 324 324 324 326 326 326 327 328 330 329
300 300 301 301 302 307 308 308 308 307 306 307 307 307 307 309 307 307 307 307 308 309 313 313 310 312 314 315 316 317 317 318 321 323 323 323 324 325 326 325 326 327 329 330 330
300 301 301 302 306 307 308 307 307 307 306 307 307 307 307 307 307 307 307 307 307 307 308 313 313 313 314 315 316 316 317 316 317 320 321 321 321 321 323 326 327 329 329 330 330
300 301 303 306 307 308 308 307 307 307 306 308 310 309 307 306 307 308 308 308 308 307 307 307 310 315 314 314 316 316 317 318 319 320 320 320 320 321 323 325 326 328 329 330 330
300 303 305 308 308 308 308 306 307 307 312 310 310 309 311 310 312 313 309 310 309 309 307 307 308 310 313 314 316 317 318 317 319 318 318 319 320 322 324 325 326 326 327 328 329
301 304 306 307 308 307 307 307 307 309 312 310 308 308 308 309 310 312 313 313 313 309 308 308 309 308 308 311 315 315 317 317 317 317 317 318 320 321 321 323 324 324 327 327 326
301 304 307 308 308 307 307 307 306 310 308 307 307 309 308 308 308 310 312 313 314 314 313 311 311 311 310 309 310 313 313 314 317 317 318 318 320 322 322 323 324 324 326 326 327
301 304 309 309 308 308 308 308 308 308 306 307 308 309 309 309 309 310 309 308 311 313 313 313 315 315 315 310 309 310 313 315 318 319 318 319 321 320 322 324 324 325 325 326 328
301 307 311 310 308 307 309 309 310 308 306 307 308 309 309 309 309 310 309 311 311 314 314 314 313 312 311 311 310 309 310 315 315 318 318 319 320 320 320 321 323 323 326 335 334
302 309 311 310 309 310 309 309 309 309 306 307 308 309 309 308 310 310 310 311 312 312 311 312 312 310 310 312 315 315 312 315 315 317 320 320 320 320 321 323 323 326 326 337 338
307 311 311 310 308 310 310 310 308 306 307 308 308 307 309 309 310 309 311 310 311 311 310 310 311 312 312 312 315 314 311 311 314 316 319 321 320 320 328 328 325 326 328 337 337
308 310 309 309 309 309 309 308 307 308 308 309 309 308 309 309 310 310 311 311 309 310 309 311 313 314 312 313 314 315 313 311 314 317 318 319 320 321 324 327 326 326 329 336 337
307 311 310 309 309 308 308 308 307 308 308 309 307 307 308 308 310 310 310 310 310 310 312 311 311 313 314 313 315 318 320 315 316 317 318 320 321 320 324 327 327 325 331 336 337
308 310 309 308 308 309 309 308 307 307 309 307 307 307 309 309 308 309 309 310 310 309 310 311 310 312 313 314 315 317 316 317 317 319 319 320 320 320 325 326 326 330 335 336 336
309 309 307 307 306 307 309 308 307 308 308 307 307 308 308 307 308 309 309 309 309 311 311 311 312 311 310 311 313 315 315 316 316 317 320 319 321 320 326 328 334 334 335 335 336
308 307 307 306 306 308 308 308 307 307 306 307 308 308 307 307 308 309 309 309 309 310 312 311 311 312 314 314 314 316 315 314 315 316 319 320 321 327 326 333 335 335 335 336 336
304 305 306 306 307 307 308 309 308 308 306 306 306 308 308 309 309 309 308 308 308 308 309 311 313 315 317 316 315 315 313 314 315 317 319 322 326 325 326 329 332 335 335 335 335

GFSSW_850_thetae_048.txt.gz
Theta_e
298 298 298 299 299 299 299 299 299 299 300 301 301 301 301 302 304 306 309 316 316 315 317 317 323 316 318 329 328 329 327 325 325 326 326 327 326 329 330 331 331 332 331 331 332
299 299 299 299 299 299 299 299 299 299 299 299 300 300 301 301 302 305 313 312 313 313 315 317 321 319 326 327 330 328 328 328 324 325 324 325 326 327 329 330 331 331 332 332 331
300 300 300 300 300 300 300 300 300 300 299 299 299 299 299 300 301 307 313 313 313 312 313 317 318 321 329 330 330 329 331 330 329 327 326 326 326 327 329 330 331 331 332 332 332
300 300 300 300 300 300 300 301 300 300 300 300 300 300 299 299 302 312 313 313 313 314 310 314 315 316 316 323 328 328 331 331 332 330 327 326 326 327 328 329 331 331 332 331 331
301 301 301 301 301 301 300 300 300 300 301 301 301 300 300 300 301 312 314 310 312 314 312 314 315 314 313 315 320 324 326 328 328 328 328 328 327 327 328 330 331 331 331 330 330
301 301 301 301 301 301 301 300 300 300 300 301 301 303 305 305 303 303 304 304 310 312 313 313 314 315 314 313 314 319 322 324 324 324 326 328 328 329 329 329 329 329 329 329 329
301 301 301 301 301 301 300 300 300 301 300 300 301 306 308 306 303 302 302 307 310 312 312 313 314 314 315 314 316 316 316 318 319 320 321 325 325 326 327 327 328 328 329 329 329
300 300 300 300 301 301 301 301 303 306 302 301 303 309 308 307 307 304 304 305 310 311 311 313 313 314 314 315 316 318 318 319 320 320 321 322 324 326 327 327 327 328 328 328 328
300 300 300 301 301 301 301 305 306 307 308 307 307 308 308 309 311 310 309 306 309 309 310 312 311 311 313 313 314 314 320 320 321 321 322 322 324 324 326 327 326 326 327 327 328
301 300 301 301 301 301 304 307 307 309 310 309 311 311 309 307 310 313 310 308 308 309 310 309 309 309 308 311 317 316 317 319 320 321 321 322 323 323 324 325 325 326 326 326 327
301 300 301 301 301 305 307 307 307 307 306 306 306 306 307 304 308 310 310 308 309 310 308 308 306 309 310 312 314 317 318 319 321 320 321 321 322 323 324 323 323 324 325 326 327
301 300 302 303 305 307 308 307 307 306 306 306 306 306 307 306 306 306 308 306 307 307 309 308 307 309 310 312 313 314 315 316 316 317 320 321 321 322 323 323 323 323 324 324 325
301 301 304 305 306 307 308 307 306 306 306 305 309 309 309 307 306 306 306 307 306 305 306 311 312 312 310 311 313 313 313 314 315 316 315 316 317 318 319 320 321 322 323 325 327
301 301 305 304 306 307 307 307 306 307 306 308 309 308 308 307 307 307 306 307 306 305 305 305 306 308 312 309 312 313 314 314 315 316 316 316 316 317 318 319 319 320 323 325 325
301 301 306 307 306 307 307 307 306 307 306 308 309 308 308 308 309 312 312 308 307 306 305 306 306 307 309 311 313 312 314 315 316 315 315 316 315 318 317 319 319 320 323 324 325
301 301 304 307 307 306 307 307 307 305 306 308 307 308 309 309 310 310 312 312 311 311 307 306 307 306 306 308 308 310 313 314 314 314 315 315 316 318 317 318 318 321 324 325 324
301 301 304 308 308 306 307 308 304 305 307 306 307 308 309 309 309 309 311 312 313 314 312 311 309 307 308 307 307 307 308 311 313 314 317 315 315 317 318 318 318 318 321 322 324
301 301 307 310 309 308 308 304 305 308 308 307 306 307 308 308 309 310 310 310 312 312 312 313 313 314 314 312 309 306 306 310 313 316 316 316 316 317 317 318 319 320 321 322 324
303 306 308 311 309 308 309 304 308 309 308 307 307 308 308 308 309 309 309 310 312 313 311 312 312 310 309 309 309 309 307 308 310 312 314 316 317 317 317 317 318 318 320 323 325
306 310 311 310 309 309 305 309 309 309 307 308 307 308 309 308 309 309 309 310 310 311 310 311 310 310 309 310 309 310 311 308 308 313 315 315 317 318 317 317 318 317 318 325 330
310 310 311 310 308 308 301 306 307 307 307 308 308 308 308 309 309 309 310 310 310 310 310 310 310 310 311 310 311 313 311 310 309 311 315 315 316 316 317 317 318 321 321 335 336
308 306 309 309 308 306 305 308 308 308 308 309 308 308 309 309 308 310 310 310 310 310 311 308 310 312 310 309 309 311 313 312 308 309 313 315 316 318 315 316 318 320 334 336 337
307 310 309 308 307 302 306 307 308 307 308 308 307 308 308 308 309 309 308 309 310 309 311 310 309 310 307 310 313 313 317 314 314 308 311 314 316 316 316 318 319 323 334 335 336
308 305 307 307 305 304 306 308 308 307 308 306 306 307 307 307 307 307 307 309 309 310 310 311 310 309 308 309 312 312 314 314 315 317 314 313 314 316 317 317 318 326 334 335 336
309 304 305 301 304 304 305 306 308 309 306 306 306 307 306 306 307 307 308 308 308 309 310 309 311 311 310 310 310 311 312 313 315 315 317 318 316 316 316 317 318 325 334 335 335
306 306 305 306 306 306 305 308 308 308 308 307 306 306 305 306 307 308 308 308 308 308 309 310 313 314 313 311 312 313 314 314 314 314 315 316 316 317 317 328 330 331 334 335 335
295 304 303 305 304 305 306 307 309 308 307 307 306 306 307 307 308 308 308 307 306 306 308 308 309 312 313 314 315 316 315 315 313 314 315 316 316 317 329 331 330 333 335 335 335